Location: Grasslands National Park East Block
(49.0708°N, 106.5295°W)
Time: 16:52:09
(UTC-06:00)

Vanguard 1 - Pass Details

Date: 29 September 2019
Orbit: 653 x 3830 km, 34.3° (Epoch: 14 October)

Event Time Altitude Azimuth Distance (km) Brightness Sun altitude
Rises 03:38:42 0° 258° (WSW) 7,557 - -31.9°
Reaches altitude 10° 03:43:43 10° 254° (WSW) 6,742 - -31.3°
Exits shadow 03:56:54 39° 231° (SW) 4,880 13.0 -29.6°
Maximum altitude 04:05:38 52° 187° (S) 4,224 12.9 -28.4°
Drops below altitude 10° 04:23:30 10° 118° (ESE) 5,616 14.3 -25.9°
Sets 04:27:13 0° 113° (ESE) 6,279 14.7 -25.4°
